Year,Month,Day,Hour,Minute,Value (Times are PST for windgust in km/hr)
2006,02,01,00,00,25.70
2006,02,01,00,01,27.40
2006,02,01,00,02,27.40
2006,02,01,00,03,29.00
2006,02,01,00,04,32.20
2006,02,01,00,05,22.50
2006,02,01,00,06,22.50
2006,02,01,00,07,19.30
2006,02,01,00,08,27.40
2006,02,01,00,09,24.20
2006,02,01,00,10,27.40
2006,02,01,00,11,20.90
2006,02,01,00,12,22.50
2006,02,01,00,13,43.50
2006,02,01,00,14,33.80
2006,02,01,00,15,43.50
2006,02,01,00,16,32.20
2006,02,01,00,17,29.00
2006,02,01,00,18,29.00
2006,02,01,00,19,22.50
2006,02,01,00,20,27.40
2006,02,01,00,21,27.40
2006,02,01,00,22,24.20
2006,02,01,00,23,20.90
2006,02,01,00,24,35.40
2006,02,01,00,25,27.40
2006,02,01,00,26,32.20
2006,02,01,00,27,22.50
2006,02,01,00,28,30.60
2006,02,01,00,29,37.00
2006,02,01,00,30,29.00
2006,02,01,00,31,35.40
2006,02,01,00,32,30.60
2006,02,01,00,33,33.80
2006,02,01,00,34,29.00
2006,02,01,00,35,37.00
2006,02,01,00,36,30.60
2006,02,01,00,37,40.20
2006,02,01,00,38,29.00
2006,02,01,00,39,40.20
2006,02,01,00,40,35.40
2006,02,01,00,41,38.60
2006,02,01,00,42,40.20
2006,02,01,00,43,25.70
2006,02,01,00,44,33.80
2006,02,01,00,45,25.70
2006,02,01,00,46,37.00
2006,02,01,00,47,48.30
2006,02,01,00,48,53.10
2006,02,01,00,49,37.00
2006,02,01,00,50,38.60
2006,02,01,00,51,40.20
2006,02,01,00,52,27.40
2006,02,01,00,53,51.50
2006,02,01,00,54,41.80
2006,02,01,00,55,43.50
2006,02,01,00,56,35.40
2006,02,01,00,57,48.30
2006,02,01,00,58,38.60
2006,02,01,00,59,30.60
2006,02,01,01,00,38.60
2006,02,01,01,01,38.60
2006,02,01,01,02,40.20
2006,02,01,01,03,33.80
2006,02,01,01,04,41.80
2006,02,01,01,05,45.10
2006,02,01,01,06,35.40
2006,02,01,01,07,41.80
2006,02,01,01,08,38.60
2006,02,01,01,09,35.40
2006,02,01,01,10,35.40
2006,02,01,01,11,19.30
2006,02,01,01,12,29.00
2006,02,01,01,13,27.40
2006,02,01,01,14,43.50
2006,02,01,01,15,35.40
2006,02,01,01,16,35.40
2006,02,01,01,17,30.60
2006,02,01,01,18,20.90
2006,02,01,01,19,43.50
2006,02,01,01,20,43.50
2006,02,01,01,21,38.60
2006,02,01,01,22,35.40
2006,02,01,01,23,33.80
2006,02,01,01,24,35.40
2006,02,01,01,25,43.50
2006,02,01,01,26,37.00
2006,02,01,01,27,29.00
2006,02,01,01,28,30.60
2006,02,01,01,29,32.20
2006,02,01,01,30,32.20
2006,02,01,01,31,24.20
2006,02,01,01,32,22.50
2006,02,01,01,33,29.00
2006,02,01,01,34,25.70
2006,02,01,01,35,35.40
2006,02,01,01,36,30.60
2006,02,01,01,37,20.90
2006,02,01,01,38,20.90
2006,02,01,01,39,27.40
2006,02,01,01,40,32.20
2006,02,01,01,41,32.20
2006,02,01,01,42,30.60
2006,02,01,01,43,20.90
2006,02,01,01,44,41.80
2006,02,01,01,45,38.60
2006,02,01,01,46,45.10
2006,02,01,01,47,49.90
2006,02,01,01,48,38.60
2006,02,01,01,49,46.70
2006,02,01,01,50,41.80
2006,02,01,01,51,40.20
2006,02,01,01,52,48.30
2006,02,01,01,53,45.10
2006,02,01,01,54,30.60
2006,02,01,01,55,57.90
2006,02,01,01,56,51.50
2006,02,01,01,57,35.40
2006,02,01,01,58,46.70
2006,02,01,01,59,32.20
2006,02,01,02,00,46.70
2006,02,01,02,01,56.30
2006,02,01,02,02,41.80
2006,02,01,02,03,40.20
2006,02,01,02,04,51.50
2006,02,01,02,05,49.90
2006,02,01,02,06,43.50
2006,02,01,02,07,37.00
2006,02,01,02,08,29.00
2006,02,01,02,09,46.70
2006,02,01,02,10,35.40
2006,02,01,02,11,35.40
2006,02,01,02,12,43.50
2006,02,01,02,13,51.50
2006,02,01,02,14,40.20
2006,02,01,02,15,35.40
2006,02,01,02,16,25.70
2006,02,01,02,17,35.40
2006,02,01,02,18,38.60
2006,02,01,02,19,35.40
2006,02,01,02,20,32.20
2006,02,01,02,21,33.80
2006,02,01,02,22,57.90
2006,02,01,02,23,30.60
2006,02,01,02,24,38.60
2006,02,01,02,25,35.40
2006,02,01,02,26,32.20
2006,02,01,02,27,37.00
2006,02,01,02,28,38.60
2006,02,01,02,29,37.00
2006,02,01,02,30,37.00
2006,02,01,02,31,48.30
2006,02,01,02,32,32.20
2006,02,01,02,33,41.80
2006,02,01,02,34,43.50
2006,02,01,02,35,37.00
2006,02,01,02,36,43.50
2006,02,01,02,37,37.00
2006,02,01,02,38,33.80
2006,02,01,02,39,30.60
2006,02,01,02,40,32.20
2006,02,01,02,41,25.70
2006,02,01,02,42,20.90
2006,02,01,02,43,22.50
2006,02,01,02,44,29.00
2006,02,01,02,45,19.30
2006,02,01,02,46,20.90
2006,02,01,02,47,33.80
2006,02,01,02,48,33.80
2006,02,01,02,49,37.00
2006,02,01,02,50,30.60
2006,02,01,02,51,30.60
2006,02,01,02,52,40.20
2006,02,01,02,53,25.70
2006,02,01,02,54,20.90
2006,02,01,02,55,48.30
2006,02,01,02,56,43.50
2006,02,01,02,57,24.20
2006,02,01,02,58,29.00
2006,02,01,02,59,38.60
2006,02,01,03,00,46.70
2006,02,01,03,01,35.40
2006,02,01,03,02,45.10
2006,02,01,03,03,37.00
2006,02,01,03,04,32.20
2006,02,01,03,05,38.60
2006,02,01,03,06,38.60
2006,02,01,03,07,24.20
2006,02,01,03,08,25.70
2006,02,01,03,09,12.90
2006,02,01,03,10,16.10
2006,02,01,03,11,29.00
2006,02,01,03,12,41.80
2006,02,01,03,13,38.60
2006,02,01,03,14,41.80
2006,02,01,03,15,32.20
2006,02,01,03,16,19.30
2006,02,01,03,17,24.20
2006,02,01,03,18,24.20
2006,02,01,03,19,29.00
2006,02,01,03,20,25.70
2006,02,01,03,21,22.50
2006,02,01,03,22,16.10
2006,02,01,03,23,8.10
2006,02,01,03,24,9.60
2006,02,01,03,25,9.60
2006,02,01,03,26,20.90
2006,02,01,03,27,33.80
2006,02,01,03,28,20.90
2006,02,01,03,29,32.20
2006,02,01,03,30,30.60
2006,02,01,03,31,40.20
2006,02,01,03,32,45.10
2006,02,01,03,33,35.40
2006,02,01,03,34,29.00
2006,02,01,03,35,27.40
2006,02,01,03,36,32.20
2006,02,01,03,37,16.10
2006,02,01,03,38,38.60
2006,02,01,03,39,51.50
2006,02,01,03,40,33.80
2006,02,01,03,41,24.20
2006,02,01,03,42,22.50
2006,02,01,03,43,8.10
2006,02,01,03,44,19.30
2006,02,01,03,45,27.40
2006,02,01,03,46,29.00
2006,02,01,03,47,25.70
2006,02,01,03,48,30.60
2006,02,01,03,49,27.40
2006,02,01,03,50,41.80
2006,02,01,03,51,45.10
2006,02,01,03,52,33.80
2006,02,01,03,53,38.60
2006,02,01,03,54,30.60
2006,02,01,03,55,37.00
2006,02,01,03,56,41.80
2006,02,01,03,57,56.30
2006,02,01,03,58,37.00
2006,02,01,03,59,46.70
2006,02,01,04,00,43.50
2006,02,01,04,01,20.90
2006,02,01,04,02,25.70
2006,02,01,04,03,45.10
2006,02,01,04,04,29.00
2006,02,01,04,05,43.50
2006,02,01,04,06,33.80
2006,02,01,04,07,22.50
2006,02,01,04,08,27.40
2006,02,01,04,09,33.80
2006,02,01,04,10,40.20
2006,02,01,04,11,45.10
2006,02,01,04,12,29.00
2006,02,01,04,13,33.80
2006,02,01,04,14,24.20
2006,02,01,04,15,35.40
2006,02,01,04,16,37.00
2006,02,01,04,17,30.60
2006,02,01,04,18,30.60
2006,02,01,04,19,33.80
2006,02,01,04,20,33.80
2006,02,01,04,21,35.40
2006,02,01,04,22,38.60
2006,02,01,04,23,25.70
2006,02,01,04,24,22.50
2006,02,01,04,25,33.80
2006,02,01,04,26,29.00
2006,02,01,04,27,33.80
2006,02,01,04,28,41.80
2006,02,01,04,29,38.60
2006,02,01,04,30,35.40
2006,02,01,04,31,33.80
2006,02,01,04,32,40.20
2006,02,01,04,33,64.40
2006,02,01,04,34,46.70
2006,02,01,04,35,30.60
2006,02,01,04,36,32.20
2006,02,01,04,37,30.60
2006,02,01,04,38,37.00
2006,02,01,04,39,35.40
2006,02,01,04,40,20.90
2006,02,01,04,41,38.60
2006,02,01,04,42,37.00
2006,02,01,04,43,35.40
2006,02,01,04,44,43.50
2006,02,01,04,45,57.90
2006,02,01,04,46,38.60
2006,02,01,04,47,53.10
2006,02,01,04,48,56.30
2006,02,01,04,49,37.00
2006,02,01,04,50,43.50
2006,02,01,04,51,49.90
2006,02,01,04,52,38.60
2006,02,01,04,53,37.00
2006,02,01,04,54,49.90
2006,02,01,04,55,49.90
2006,02,01,04,56,56.30
2006,02,01,04,57,40.20
2006,02,01,04,58,45.10
2006,02,01,04,59,43.50
2006,02,01,05,00,43.50
2006,02,01,05,01,27.40
2006,02,01,05,02,22.50
2006,02,01,05,03,45.10
2006,02,01,05,04,37.00
2006,02,01,05,05,49.90
2006,02,01,05,06,43.50
2006,02,01,05,07,53.10
2006,02,01,05,08,51.50
2006,02,01,05,09,48.30
2006,02,01,05,10,59.50
2006,02,01,05,11,62.70
2006,02,01,05,12,78.80
2006,02,01,05,13,54.70
2006,02,01,05,14,43.50
2006,02,01,05,15,40.20
2006,02,01,05,16,49.90
2006,02,01,05,17,43.50
2006,02,01,05,18,41.80
2006,02,01,05,19,51.50
2006,02,01,05,20,43.50
2006,02,01,05,21,53.10
2006,02,01,05,22,57.90
2006,02,01,05,23,62.70
2006,02,01,05,24,62.70
2006,02,01,05,25,62.70
2006,02,01,05,26,66.00
2006,02,01,05,27,57.90
2006,02,01,05,28,74.00
2006,02,01,05,29,54.70
2006,02,01,05,30,54.70
2006,02,01,05,31,48.30
2006,02,01,05,32,54.70
2006,02,01,05,33,48.30
2006,02,01,05,34,59.50
2006,02,01,05,35,61.20
2006,02,01,05,36,59.50
2006,02,01,05,37,53.10
2006,02,01,05,38,69.20
2006,02,01,05,39,56.30
2006,02,01,05,40,37.00
2006,02,01,05,41,49.90
2006,02,01,05,42,37.00
2006,02,01,05,43,53.10
2006,02,01,05,44,53.10
2006,02,01,05,45,40.20
2006,02,01,05,46,59.50
2006,02,01,05,47,53.10
2006,02,01,05,48,51.50
2006,02,01,05,49,53.10
2006,02,01,05,50,46.70
2006,02,01,05,51,49.90
2006,02,01,05,52,53.10
2006,02,01,05,53,41.80
2006,02,01,05,54,54.70
2006,02,01,05,55,41.80
2006,02,01,05,56,49.90
2006,02,01,05,57,49.90
2006,02,01,05,58,62.70
2006,02,01,05,59,57.90
2006,02,01,06,00,59.50
2006,02,01,06,01,57.90
2006,02,01,06,02,46.70
2006,02,01,06,03,43.50
2006,02,01,06,04,53.10
2006,02,01,06,05,37.00
2006,02,01,06,06,54.70
2006,02,01,06,07,54.70
2006,02,01,06,08,38.60
2006,02,01,06,09,64.40
2006,02,01,06,10,53.10
2006,02,01,06,11,54.70
2006,02,01,06,12,54.70
2006,02,01,06,13,33.80
2006,02,01,06,14,53.10
2006,02,01,06,15,53.10
2006,02,01,06,16,45.10
2006,02,01,06,17,43.50
2006,02,01,06,18,51.50
2006,02,01,06,19,56.30
2006,02,01,06,20,61.20
2006,02,01,06,21,59.50
2006,02,01,06,22,53.10
2006,02,01,06,23,53.10
2006,02,01,06,24,62.70
2006,02,01,06,25,45.10
2006,02,01,06,26,27.40
2006,02,01,06,27,53.10
2006,02,01,06,28,53.10
2006,02,01,06,29,45.10
2006,02,01,06,30,56.30
2006,02,01,06,31,75.60
2006,02,01,06,32,64.40
2006,02,01,06,33,51.50
2006,02,01,06,34,51.50
2006,02,01,06,35,49.90
2006,02,01,06,36,54.70
2006,02,01,06,37,62.70
2006,02,01,06,38,46.70
2006,02,01,06,39,61.20
2006,02,01,06,40,45.10
2006,02,01,06,41,45.10
2006,02,01,06,42,38.60
2006,02,01,06,43,61.20
2006,02,01,06,44,43.50
2006,02,01,06,45,53.10
2006,02,01,06,46,53.10
2006,02,01,06,47,35.40
2006,02,01,06,48,43.50
2006,02,01,06,49,38.60
2006,02,01,06,50,62.70
2006,02,01,06,51,56.30
2006,02,01,06,52,48.30
2006,02,01,06,53,41.80
2006,02,01,06,54,49.90
2006,02,01,06,55,51.50
2006,02,01,06,56,43.50
2006,02,01,06,57,53.10
2006,02,01,06,58,43.50
2006,02,01,06,59,49.90
2006,02,01,07,00,37.00
2006,02,01,07,01,40.20
2006,02,01,07,02,51.50
2006,02,01,07,03,45.10
2006,02,01,07,04,43.50
2006,02,01,07,05,53.10
2006,02,01,07,06,40.20
2006,02,01,07,07,53.10
2006,02,01,07,08,38.60
2006,02,01,07,09,29.00
2006,02,01,07,10,37.00
2006,02,01,07,11,51.50
2006,02,01,07,12,46.70
2006,02,01,07,13,41.80
2006,02,01,07,14,41.80
2006,02,01,07,15,54.70
2006,02,01,07,16,40.20
2006,02,01,07,17,46.70
2006,02,01,07,18,51.50
2006,02,01,07,19,45.10
2006,02,01,07,20,40.20
2006,02,01,07,21,38.60
2006,02,01,07,22,54.70
2006,02,01,07,23,48.30
2006,02,01,07,24,48.30
2006,02,01,07,25,41.80
2006,02,01,07,26,40.20
2006,02,01,07,27,33.80
2006,02,01,07,28,43.50
2006,02,01,07,29,53.10
2006,02,01,07,30,37.00
2006,02,01,07,31,30.60
2006,02,01,07,32,46.70
2006,02,01,07,33,33.80
2006,02,01,07,34,35.40
2006,02,01,07,35,30.60
2006,02,01,07,36,30.60
2006,02,01,07,37,33.80
2006,02,01,07,38,33.80
2006,02,01,07,39,38.60
2006,02,01,07,40,29.00
2006,02,01,07,41,29.00
2006,02,01,07,42,40.20
2006,02,01,07,43,53.10
2006,02,01,07,44,48.30
2006,02,01,07,45,38.60
2006,02,01,07,46,29.00
2006,02,01,07,47,38.60
2006,02,01,07,48,35.40
2006,02,01,07,49,35.40
2006,02,01,07,50,27.40
2006,02,01,07,51,32.20
2006,02,01,07,52,27.40
2006,02,01,07,53,30.60
2006,02,01,07,54,32.20
2006,02,01,07,55,38.60
2006,02,01,07,56,38.60
2006,02,01,07,57,33.80
2006,02,01,07,58,35.40
2006,02,01,07,59,38.60
2006,02,01,08,00,27.40
2006,02,01,08,01,22.50
2006,02,01,08,02,9.60
2006,02,01,08,03,24.20
2006,02,01,08,04,30.60
2006,02,01,08,05,27.40
2006,02,01,08,06,24.20
2006,02,01,08,07,25.70
2006,02,01,08,08,20.90
2006,02,01,08,09,27.40
2006,02,01,08,10,25.70
2006,02,01,08,11,24.20
2006,02,01,08,12,29.00
2006,02,01,08,13,9.60
2006,02,01,08,14,19.30
2006,02,01,08,15,19.30
2006,02,01,08,16,22.50
2006,02,01,08,17,24.20
2006,02,01,08,18,16.10
2006,02,01,08,19,9.60
2006,02,01,08,20,14.50
2006,02,01,08,21,11.30
2006,02,01,08,22,14.50
2006,02,01,08,23,9.60
2006,02,01,08,24,4.80
2006,02,01,08,25,4.80
2006,02,01,08,26,3.20
2006,02,01,08,27,6.40
2006,02,01,08,28,4.80
2006,02,01,08,29,11.30
2006,02,01,08,30,17.70
2006,02,01,08,31,35.40
2006,02,01,08,32,30.60
2006,02,01,08,33,37.00
2006,02,01,08,34,41.80
2006,02,01,08,35,17.70
2006,02,01,08,36,24.20
2006,02,01,08,37,25.70
2006,02,01,08,38,16.10
2006,02,01,08,39,19.30
2006,02,01,08,40,11.30
2006,02,01,08,41,16.10
2006,02,01,08,42,9.60
2006,02,01,08,43,9.60
2006,02,01,08,44,8.10
2006,02,01,08,45,4.80
2006,02,01,08,46,4.80
2006,02,01,08,47,4.80
2006,02,01,08,48,1.60
2006,02,01,08,49,8.10
2006,02,01,08,50,8.10
2006,02,01,08,51,4.80
2006,02,01,08,52,4.80
2006,02,01,08,53,4.80
2006,02,01,08,54,3.20
2006,02,01,08,55,1.60
2006,02,01,08,56,3.20
2006,02,01,08,57,6.40
2006,02,01,08,58,3.20
2006,02,01,08,59,0.00
2006,02,01,09,00,1.60
2006,02,01,09,01,3.20
2006,02,01,09,02,0.00
2006,02,01,09,03,0.00
2006,02,01,09,04,0.00
2006,02,01,09,05,6.40
2006,02,01,09,06,9.60
2006,02,01,09,07,8.10
2006,02,01,09,08,6.40
2006,02,01,09,09,4.80
2006,02,01,09,10,6.40
2006,02,01,09,11,8.10
2006,02,01,09,12,11.30
2006,02,01,09,13,9.60
2006,02,01,09,14,8.10
2006,02,01,09,15,3.20
2006,02,01,09,16,1.60
2006,02,01,09,17,4.80
2006,02,01,09,18,6.40
2006,02,01,09,19,4.80
2006,02,01,09,20,6.40
2006,02,01,09,21,4.80
2006,02,01,09,22,9.60
2006,02,01,09,23,11.30
2006,02,01,09,24,4.80
2006,02,01,09,25,3.20
2006,02,01,09,26,1.60
2006,02,01,09,27,4.80
2006,02,01,09,28,4.80
2006,02,01,09,29,6.40
2006,02,01,09,30,4.80
2006,02,01,09,31,6.40
2006,02,01,09,32,8.10
2006,02,01,09,33,8.10
2006,02,01,09,34,9.60
2006,02,01,09,35,6.40
2006,02,01,09,36,8.10
2006,02,01,09,37,4.80
2006,02,01,09,38,4.80
2006,02,01,09,39,4.80
2006,02,01,09,40,9.60
2006,02,01,09,41,6.40
2006,02,01,09,42,11.30
2006,02,01,09,43,9.60
2006,02,01,09,44,3.20
2006,02,01,09,45,11.30
2006,02,01,09,46,9.60
2006,02,01,09,47,11.30
2006,02,01,09,48,14.50
2006,02,01,09,49,9.60
2006,02,01,09,50,8.10
2006,02,01,09,51,3.20
2006,02,01,09,52,11.30
2006,02,01,09,53,11.30
2006,02,01,09,54,11.30
2006,02,01,09,55,6.40
2006,02,01,09,56,6.40
2006,02,01,09,57,6.40
2006,02,01,09,58,3.20
2006,02,01,09,59,3.20
2006,02,01,10,00,4.80
2006,02,01,10,01,4.80
2006,02,01,10,02,3.20
2006,02,01,10,03,8.10
2006,02,01,10,04,6.40
2006,02,01,10,05,8.10
2006,02,01,10,06,9.60
2006,02,01,10,07,9.60
2006,02,01,10,08,4.80
2006,02,01,10,09,11.30
2006,02,01,10,10,9.60
2006,02,01,10,11,8.10
2006,02,01,10,12,9.60
2006,02,01,10,13,9.60
2006,02,01,10,14,11.30
2006,02,01,10,15,14.50
2006,02,01,10,16,6.40
2006,02,01,10,17,8.10
2006,02,01,10,18,9.60
2006,02,01,10,19,16.10
2006,02,01,10,20,14.50
2006,02,01,10,21,17.70
2006,02,01,10,22,20.90
2006,02,01,10,23,16.10
2006,02,01,10,24,22.50
2006,02,01,10,25,17.70
2006,02,01,10,26,11.30
2006,02,01,10,27,8.10
2006,02,01,10,28,9.60
2006,02,01,10,29,9.60
2006,02,01,10,30,14.50
2006,02,01,10,31,19.30
2006,02,01,10,32,17.70
2006,02,01,10,33,16.10
2006,02,01,10,34,19.30
2006,02,01,10,35,9.60
2006,02,01,10,36,9.60
2006,02,01,10,37,9.60
2006,02,01,10,38,4.80
2006,02,01,10,39,6.40
2006,02,01,10,40,9.60
2006,02,01,10,41,4.80
2006,02,01,10,42,14.50
2006,02,01,10,43,16.10
2006,02,01,10,44,9.60
2006,02,01,10,45,11.30
2006,02,01,10,46,11.30
2006,02,01,10,47,16.10
2006,02,01,10,48,14.50
2006,02,01,10,49,9.60
2006,02,01,10,50,8.10
2006,02,01,10,51,17.70
2006,02,01,10,52,20.90
2006,02,01,10,53,14.50
2006,02,01,10,54,11.30
2006,02,01,10,55,9.60
2006,02,01,10,56,22.50
2006,02,01,10,57,19.30
2006,02,01,10,58,16.10
2006,02,01,10,59,14.50
2006,02,01,11,00,14.50
2006,02,01,11,01,9.60
2006,02,01,11,02,19.30
2006,02,01,11,03,20.90
2006,02,01,11,04,16.10
2006,02,01,11,05,14.50
2006,02,01,11,06,9.60
2006,02,01,11,07,14.50
2006,02,01,11,08,17.70
2006,02,01,11,09,11.30
2006,02,01,11,10,9.60
2006,02,01,11,11,9.60
2006,02,01,11,12,11.30
2006,02,01,11,13,16.10
2006,02,01,11,14,14.50
2006,02,01,11,15,11.30
2006,02,01,11,16,11.30
2006,02,01,11,17,14.50
2006,02,01,11,18,16.10
2006,02,01,11,19,17.70
2006,02,01,11,20,16.10
2006,02,01,11,21,12.90
2006,02,01,11,22,19.30
2006,02,01,11,23,19.30
2006,02,01,11,24,16.10
2006,02,01,11,25,19.30
2006,02,01,11,26,11.30
2006,02,01,11,27,20.90
2006,02,01,11,28,19.30
2006,02,01,11,29,17.70
2006,02,01,11,30,19.30
2006,02,01,11,31,16.10
2006,02,01,11,32,17.70
2006,02,01,11,33,17.70
2006,02,01,11,34,12.90
2006,02,01,11,35,19.30
2006,02,01,11,36,11.30
2006,02,01,11,37,20.90
2006,02,01,11,38,27.40
2006,02,01,11,39,22.50
2006,02,01,11,40,17.70
2006,02,01,11,41,16.10
2006,02,01,11,42,16.10
2006,02,01,11,43,22.50
2006,02,01,11,44,22.50
2006,02,01,11,45,16.10
2006,02,01,11,46,16.10
2006,02,01,11,47,19.30
2006,02,01,11,48,24.20
2006,02,01,11,49,20.90
2006,02,01,11,50,16.10
2006,02,01,11,51,8.10
2006,02,01,11,52,19.30
2006,02,01,11,53,22.50
2006,02,01,11,54,20.90
2006,02,01,11,55,17.70
2006,02,01,11,56,19.30
2006,02,01,11,57,19.30
2006,02,01,11,58,20.90
2006,02,01,11,59,22.50
2006,02,01,12,00,27.40
2006,02,01,12,01,24.20
2006,02,01,12,02,16.10
2006,02,01,12,03,20.90
2006,02,01,12,04,25.70
2006,02,01,12,05,20.90
2006,02,01,12,06,17.70
2006,02,01,12,07,20.90
2006,02,01,12,08,16.10
2006,02,01,12,09,20.90
2006,02,01,12,10,20.90
2006,02,01,12,11,19.30
2006,02,01,12,12,17.70
2006,02,01,12,13,12.90
2006,02,01,12,14,8.10
2006,02,01,12,15,11.30
2006,02,01,12,16,17.70
2006,02,01,12,17,9.60
2006,02,01,12,18,11.30
2006,02,01,12,19,17.70
2006,02,01,12,20,17.70
2006,02,01,12,21,16.10
2006,02,01,12,22,16.10
2006,02,01,12,23,17.70
2006,02,01,12,24,11.30
2006,02,01,12,25,17.70
2006,02,01,12,26,16.10
2006,02,01,12,27,16.10
2006,02,01,12,28,11.30
2006,02,01,12,29,12.90
2006,02,01,12,30,17.70
2006,02,01,12,31,9.60
2006,02,01,12,32,11.30
2006,02,01,12,33,14.50
2006,02,01,12,34,11.30
2006,02,01,12,35,11.30
2006,02,01,12,36,16.10
2006,02,01,12,37,17.70
2006,02,01,12,38,16.10
2006,02,01,12,39,16.10
2006,02,01,12,40,9.60
2006,02,01,12,41,9.60
2006,02,01,12,42,9.60
2006,02,01,12,43,6.40
2006,02,01,12,44,8.10
2006,02,01,12,45,8.10
2006,02,01,12,46,4.80
2006,02,01,12,47,4.80
2006,02,01,12,48,6.40
2006,02,01,12,49,4.80
2006,02,01,12,50,6.40
2006,02,01,12,51,6.40
2006,02,01,12,52,6.40
2006,02,01,12,53,6.40
2006,02,01,12,54,8.10
2006,02,01,12,55,8.10
2006,02,01,12,56,8.10
2006,02,01,12,57,8.10
2006,02,01,12,58,8.10
2006,02,01,12,59,6.40
2006,02,01,13,00,1.60
2006,02,01,13,01,4.80
2006,02,01,13,02,8.10
2006,02,01,13,03,4.80
2006,02,01,13,04,4.80
2006,02,01,13,05,6.40
2006,02,01,13,06,4.80
2006,02,01,13,07,3.20
2006,02,01,13,08,3.20
2006,02,01,13,09,6.40
2006,02,01,13,10,4.80
2006,02,01,13,11,4.80
2006,02,01,13,12,6.40
2006,02,01,13,13,4.80
2006,02,01,13,14,4.80
2006,02,01,13,15,6.40
2006,02,01,13,16,4.80
2006,02,01,13,17,4.80
2006,02,01,13,18,3.20
2006,02,01,13,19,6.40
2006,02,01,13,20,6.40
2006,02,01,13,21,4.80
2006,02,01,13,22,6.40
2006,02,01,13,23,6.40
2006,02,01,13,24,4.80
2006,02,01,13,25,6.40
2006,02,01,13,26,6.40
2006,02,01,13,27,8.10
2006,02,01,13,28,8.10
2006,02,01,13,29,9.60
2006,02,01,13,30,8.10
2006,02,01,13,31,6.40
2006,02,01,13,32,8.10
2006,02,01,13,33,9.60
2006,02,01,13,34,6.40
2006,02,01,13,35,6.40
2006,02,01,13,36,6.40
2006,02,01,13,37,4.80
2006,02,01,13,38,4.80
2006,02,01,13,39,6.40
2006,02,01,13,40,4.80
2006,02,01,13,41,4.80
2006,02,01,13,42,8.10
2006,02,01,13,43,8.10
2006,02,01,13,44,8.10
2006,02,01,13,45,6.40
2006,02,01,13,46,8.10
2006,02,01,13,47,3.20
2006,02,01,13,48,6.40
2006,02,01,13,49,9.60
2006,02,01,13,50,9.60
2006,02,01,13,51,8.10
2006,02,01,13,52,6.40
2006,02,01,13,53,4.80
2006,02,01,13,54,6.40
2006,02,01,13,55,8.10
2006,02,01,13,56,9.60
2006,02,01,13,57,8.10
2006,02,01,13,58,8.10
2006,02,01,13,59,8.10
2006,02,01,14,00,8.10
2006,02,01,14,01,6.40
2006,02,01,14,02,4.80
2006,02,01,14,03,9.60
2006,02,01,14,04,9.60
2006,02,01,14,05,11.30
2006,02,01,14,06,8.10
2006,02,01,14,07,6.40
2006,02,01,14,08,4.80
2006,02,01,14,09,8.10
2006,02,01,14,10,9.60
2006,02,01,14,11,9.60
2006,02,01,14,12,8.10
2006,02,01,14,13,4.80
2006,02,01,14,14,12.90
2006,02,01,14,15,4.80
2006,02,01,14,16,4.80
2006,02,01,14,17,6.40
2006,02,01,14,18,6.40
2006,02,01,14,19,8.10
2006,02,01,14,20,9.60
2006,02,01,14,21,9.60
2006,02,01,14,22,8.10
2006,02,01,14,23,4.80
2006,02,01,14,24,4.80
2006,02,01,14,25,4.80
2006,02,01,14,26,4.80
2006,02,01,14,27,8.10
2006,02,01,14,28,8.10
2006,02,01,14,29,6.40
2006,02,01,14,30,4.80
2006,02,01,14,31,4.80
2006,02,01,14,32,6.40
2006,02,01,14,33,4.80
2006,02,01,14,34,8.10
2006,02,01,14,35,8.10
2006,02,01,14,36,3.20
2006,02,01,14,37,8.10
2006,02,01,14,38,6.40
2006,02,01,14,39,8.10
2006,02,01,14,40,6.40
2006,02,01,14,41,8.10
2006,02,01,14,42,6.40
2006,02,01,14,43,11.30
2006,02,01,14,44,6.40
2006,02,01,14,45,9.60
2006,02,01,14,46,9.60
2006,02,01,14,47,8.10
2006,02,01,14,48,6.40
2006,02,01,14,49,11.30
2006,02,01,14,50,9.60
2006,02,01,14,51,8.10
2006,02,01,14,52,3.20
2006,02,01,14,53,1.60
2006,02,01,14,54,6.40
2006,02,01,14,55,4.80
2006,02,01,14,56,3.20
2006,02,01,14,57,3.20
2006,02,01,14,58,4.80
2006,02,01,14,59,6.40
2006,02,01,15,00,8.10
2006,02,01,15,01,8.10
2006,02,01,15,02,6.40
2006,02,01,15,03,6.40
2006,02,01,15,04,11.30
2006,02,01,15,05,14.50
2006,02,01,15,06,8.10
2006,02,01,15,07,4.80
2006,02,01,15,08,4.80
2006,02,01,15,09,3.20
2006,02,01,15,10,3.20
2006,02,01,15,11,6.40
2006,02,01,15,12,6.40
2006,02,01,15,13,6.40
2006,02,01,15,14,6.40
2006,02,01,15,15,1.60
2006,02,01,15,16,1.60
2006,02,01,15,17,0.00
2006,02,01,15,18,0.00
2006,02,01,15,19,1.60
2006,02,01,15,20,1.60
2006,02,01,15,21,0.00
2006,02,01,15,22,0.00
2006,02,01,15,23,0.00
2006,02,01,15,24,0.00
2006,02,01,15,25,3.20
2006,02,01,15,26,3.20
2006,02,01,15,27,6.40
2006,02,01,15,28,3.20
2006,02,01,15,29,3.20
2006,02,01,15,30,3.20
2006,02,01,15,31,3.20
2006,02,01,15,32,3.20
2006,02,01,15,33,6.40
2006,02,01,15,34,6.40
2006,02,01,15,35,8.10
2006,02,01,15,36,8.10
2006,02,01,15,37,8.10
2006,02,01,15,38,6.40
2006,02,01,15,39,4.80
2006,02,01,15,40,6.40
2006,02,01,15,41,4.80
2006,02,01,15,42,4.80
2006,02,01,15,43,3.20
2006,02,01,15,44,3.20
2006,02,01,15,45,6.40
2006,02,01,15,46,3.20
2006,02,01,15,47,4.80
2006,02,01,15,48,4.80
2006,02,01,15,49,3.20
2006,02,01,15,50,3.20
2006,02,01,15,51,1.60
2006,02,01,15,52,1.60
2006,02,01,15,53,0.00
2006,02,01,15,54,0.00
2006,02,01,15,55,0.00
2006,02,01,15,56,0.00
2006,02,01,15,57,0.00
2006,02,01,15,58,0.00
2006,02,01,15,59,3.20
2006,02,01,16,00,4.80
2006,02,01,16,01,4.80
2006,02,01,16,02,1.60
2006,02,01,16,03,0.00
2006,02,01,16,04,0.00
2006,02,01,16,05,0.00
2006,02,01,16,06,0.00
2006,02,01,16,07,0.00
2006,02,01,16,08,0.00
2006,02,01,16,09,3.20
2006,02,01,16,10,3.20
2006,02,01,16,11,3.20
2006,02,01,16,12,1.60
2006,02,01,16,13,1.60
2006,02,01,16,14,0.00
2006,02,01,16,15,0.00
2006,02,01,16,16,0.00
2006,02,01,16,17,0.00
2006,02,01,16,18,3.20
2006,02,01,16,19,3.20
2006,02,01,16,20,1.60
2006,02,01,16,21,1.60
2006,02,01,16,22,1.60
2006,02,01,16,23,0.00
2006,02,01,16,24,0.00
2006,02,01,16,25,0.00
2006,02,01,16,26,3.20
2006,02,01,16,27,3.20
2006,02,01,16,28,4.80
2006,02,01,16,29,6.40
2006,02,01,16,30,4.80
2006,02,01,16,31,3.20
2006,02,01,16,32,3.20
2006,02,01,16,33,3.20
2006,02,01,16,34,3.20
2006,02,01,16,35,4.80
2006,02,01,16,36,4.80
2006,02,01,16,37,9.60
2006,02,01,16,38,11.30
2006,02,01,16,39,6.40
2006,02,01,16,40,9.60
2006,02,01,16,41,4.80
2006,02,01,16,42,1.60
2006,02,01,16,43,3.20
2006,02,01,16,44,4.80
2006,02,01,16,45,6.40
2006,02,01,16,46,6.40
2006,02,01,16,47,8.10
2006,02,01,16,48,8.10
2006,02,01,16,49,6.40
2006,02,01,16,50,16.10
2006,02,01,16,51,11.30
2006,02,01,16,52,8.10
2006,02,01,16,53,4.80
2006,02,01,16,54,12.90
2006,02,01,16,55,14.50
2006,02,01,16,56,11.30
2006,02,01,16,57,8.10
2006,02,01,16,58,9.60
2006,02,01,16,59,4.80
2006,02,01,17,00,4.80
2006,02,01,17,01,3.20
2006,02,01,17,02,8.10
2006,02,01,17,03,6.40
2006,02,01,17,04,6.40
2006,02,01,17,05,9.60
2006,02,01,17,06,4.80
2006,02,01,17,07,6.40
2006,02,01,17,08,3.20
2006,02,01,17,09,3.20
2006,02,01,17,10,1.60
2006,02,01,17,11,0.00
2006,02,01,17,12,0.00
2006,02,01,17,13,0.00
2006,02,01,17,14,0.00
2006,02,01,17,15,0.00
2006,02,01,17,16,0.00
2006,02,01,17,17,0.00
2006,02,01,17,18,0.00
2006,02,01,17,19,0.00
2006,02,01,17,20,0.00
2006,02,01,17,21,1.60
2006,02,01,17,22,3.20
2006,02,01,17,23,3.20
2006,02,01,17,24,4.80
2006,02,01,17,25,3.20
2006,02,01,17,26,1.60
2006,02,01,17,27,0.00
2006,02,01,17,28,0.00
2006,02,01,17,29,0.00
2006,02,01,17,30,0.00
2006,02,01,17,31,0.00
2006,02,01,17,32,0.00
2006,02,01,17,33,3.20
2006,02,01,17,34,3.20
2006,02,01,17,35,3.20
2006,02,01,17,36,4.80
2006,02,01,17,37,1.60